Flag for Austria Weather past 2 weeks in St. Pölten, Lower Austria, Austria

Now
88 °F

Passing clouds.


Feels Like: 87 °F
Forecast: 62 / 92 °F
Wind: 7 mph from East

Location: Tulln Airport

Current Time: Jul 4, 2015 at 7:52:52 PM

Latest Report: Jul 4, 2015 at 6:50 PM


Visibility: 25 mi

Pressure: 30.15 "Hg

Humidity: 35%

Dew point: 57 °F

Location of St. PöltenLocation

Historic Weather in St. Pölten — Graph

°F

St. Pölten temperature yesterday

Maximum temperature yesterday: 88 °F (at 1:50 PM)
Minimum temperature yesterday: 59 °F (at 5:50 AM)
Average temperature yesterday: 79 °F

Past Weeks' High & Low Weather Summary

 TemperatureHumidityPressure
High91 °F (Jul 4, 3:50 PM)100% (Jun 20, 5:50 AM)30.30 "Hg (Jun 20, 5:50 AM)
Low48 °F (Jun 25, 5:50 AM)29% (Jul 4, 2:50 PM)29.80 "Hg (Jun 23, 6:50 AM)
Average69 °F65%30.12 "Hg
* Reported Jun 19 6:50 PM — Jul 4 6:50 PM, St. Pölten, Weather by CustomWeather, © 2015

Note: Actual official high and low records may vary slightly from our data, if they occured in-between our weather recording intervals... More about our weather records

Advertising

St. Pölten weather history for previous 24 hours

 ConditionsComfort  
Time TempWeatherWind HumidityBarometerVisibility
6:50 PM
Sat, Jul 4
88 °FPassing clouds.7 mph35%30.15 "Hg25 mi
5:50 PM90 °FPassing clouds.9 mph31%30.15 "Hg25 mi
4:50 PM90 °FPassing clouds.9 mph29%30.15 "Hg25 mi
3:50 PM91 °FPassing clouds.6 mph30%30.18 "Hg22 mi
2:50 PM90 °FPassing clouds.7 mph29%30.18 "Hg22 mi
1:50 PM90 °FScattered clouds.5 mph31%30.18 "Hg22 mi
12:50 PM88 °FScattered clouds.10 mph35%30.21 "Hg22 mi
11:50 AM86 °FScattered clouds.9 mph40%30.21 "Hg22 mi
10:50 AM84 °FPartly sunny.9 mph45%30.24 "Hg22 mi
9:50 AM81 °FPartly sunny.2 mph54%30.24 "Hg22 mi
8:50 AM79 °FPartly sunny.2 mph58%30.24 "Hg22 mi
7:50 AM73 °FScattered clouds.3 mph69%30.24 "Hg22 mi
6:50 AM66 °FScattered clouds.2 mph83%30.24 "Hg22 mi
5:50 AM63 °FPassing clouds.1 mph88%30.24 "Hg22 mi
10:50 PM
Fri, Jul 3
75 °FPassing clouds.6 mph57%30.30 "Hg12 mi
9:50 PM75 °FPassing clouds.7 mph57%30.30 "Hg16 mi
8:50 PM79 °FPassing clouds.6 mph51%30.27 "Hg22 mi
7:50 PM82 °FPassing clouds.7 mph48%30.27 "Hg22 mi
Weather by CustomWeather, © 2015

See weather overviewHow to use our weather pages